Tracking 29892 objects as of 21-Nov-2024
HD Live streaming from Space Station
objects crossing your sky now

COSMOS 1275 DEB

Track COSMOS 1275 DEB now!
10-day predictions


NORAD ID: 13803
Int'l Code: 1981-053HA
Perigee: 839.9 km
Apogee: 904.5 km
Inclination: 82.8 °
Period: 102.2 minutes
Semi major axis: 7243 km
RCS: 0.039 m2 (small)
Launch date: June 4, 1981
Source: Commonwealth of Independent States (former USSR) (CIS)
Launch site: PLESETSK MISSILE AND SPACE COMPLEX (PKMTR)

Note: This is SATELLITE DEBRIS
Your satellite tracking list
Your tracking list is empty




NASA's NSSDC Master Catalog

Two Line Element Set (TLE):
1 13803U 81053GX  24326.13472559  .00004696  00000-0  27119-2 0  9992
2 13803  82.8166 216.7405 0044566 147.1293  22.2992 14.08334499132428
Source of the keplerian elements: AFSPC